User: anonymous   Login
Location: Beccas
(43.4309°N, 0.1528°E)
Time: 16:06:17
(UTC+00:00)
Language:

H-2A R/B - Orbit

View from above orbital plane
View from above orbital plane
View from above satellite
View from above satellite

Ground track
Ground track

The orbit data is extracted from the following two-line orbital elements,

1 38341U 12025E   22021.80964055  .00000619  00000-0  79175-4 0  9992
2 38341  98.5179 227.2140 0055549 157.0351 203.3363 14.84400998523892
Epoch (UTC): 21 January 2022 19:25:52
Eccentricity: 0.0055549
inclination: 98.5179°
perigee height: 576 km
apogee height: 654 km
right ascension of ascending node: 227.2140°
argument of perigee: 157.0351°
revolutions per day: 14.84400998
mean anomaly at epoch: 203.3363°
orbit number at epoch: 52389

The dashed part of the orbit path shows where the satellite is in the earth's shadow,  

DLR